BREEZE-M DEB, 38646

Orbit data source: Space-Track

BREEZE-M DEB, 38646 is space debris in HEO originally from a launch on Fri, 14 Mar 2008 UTC launched from the Tyuratam Missile And Space Complex (TTMTR). Debris objects in space refer to the collection of defunct objects orbiting the Earth. Examples of debris include non-operational satellites, rocket bodies, and fragments generated from explosions, collisions, or faulty payload assembly.

Loading next visibility...
Identifier
38646, 2008-011CV
Orbit
HEO
Country
Flag of CISCIS
Related business
Manufacturer
Unknown
Mission
Spacecraft
Bus & Motor
Unknown
Mass
Unknown
Launch date (UTC)
2008-03-14 (18 years ago)
Launch vehicle
Unknown
Launch site
Tyuratam Missile And Space Complex (TTMTR)
Object type
Payload
Rocket body
Debris
Shape & HBR
Unknown shape, 0.4 m
Radar Cross Section
Medium (>0.1 m² and <1 m²)

Expand to show TLE details & history
Last TLE update: 1 month ago

TLE from 1 month ago
0 BREEZE-M DEB
1 38646U 08011CV  26136.14397257  .00000659  00000-0  29094-1 0  9998
2 38646  49.1549  60.4435 6376709 176.8606 351.5760  3.05972678148248
Epoch: 2026-05-16T03:27Z
TLE epoch observation values (Epoch: 2026-05-16T03:27:19.230Z)
Latitude
34.70741°
Longitude
-81.77393°
Altitude
1,825.87 km
Speed
8.796 km/s
True Right ascension
13h 35m 41s
True Declination
34° 34' 03"
Sunlit
Object was in daylight at epoch
Visualization orbit readout
Latitude
Unknown
Longitude
Unknown
Altitude
Unknown
Speed
Unknown
Apparent Right ascension
Unknown
Apparent Declination
Unknown
Sunlit
N/A
Visualization observer readout
Local Sidereal Time
05:02:05
Azimuth
Unknown
Elevation
Unknown
Doppler factor
Unknown
Orbital elements
Apogee altitude
26,445.628 km
Perigee altitude
884.009 km
Semi-major axis
20,042.955 km
Eccentricity
0.63767
Inclination
49.1549°
RAAN
60.4435°
Arg. of periapsis
176.8606°
True anomaly
314.58582°
Mean anomaly
351.576°
Eccentric anomaly
337.72987°
Mean motion
0.76489 °/min
Orbital period
470.65 mins
BSTAR
0.029094
Loading maneuver chart data...
Computing Atmospheric mass density...
Loading historical data...
Loading historical data...
Loading historical data...
Loading historical data...
Loading historical data...
Loading historical data...
Loading historical data...

Documentation

Showing up to 5 results
|